Cloud_Cover
21 2 0 0 0 0 0 0 0 0 0 0 0 0 0 0 0 0 0 0 0 0 0 0 0 0 0 0 0 0 0 0 0 0 0 0 0 0 0 0 3 4 0
0 0 0 1 0 0 0 0 0 0 0 0 0 0 0 0 0 0 0 0 0 0 0 0 0 0 0 0 0 0 0 0 0 0 0 0 0 0 0 0 0 1 0
0 0 0 4 5 0 0 0 0 0 0 0 0 0 0 0 0 0 0 0 0 0 0 0 0 0 0 0 0 0 0 0 0 0 0 0 14 3 0 0 0 0 0
27 7 41 5 4 4 0 0 0 3 5 16 0 1 1 0 0 0 0 0 0 1 1 0 0 0 0 0 0 0 0 0 0 0 0 58 100 100 61 0 0 0 0
74 95 97 100 97 46 2 32 75 96 67 5 0 4 34 0 56 81 6 4 0 6 99 32 3 0 0 0 0 0 0 0 0 0 46 100 100 100 100 0 0 0 0
26 23 100 89 78 61 100 73 99 11 36 7 5 68 100 22 5 61 5 3 20 4 6 91 51 4 2 0 0 0 0 3 5 5 47 100 100 100 100 0 5 0 0
3 62 100 100 100 100 100 100 100 91 20 5 44 100 100 100 14 5 5 3 5 87 73 8 52 52 5 3 1 3 5 5 5 6 67 96 100 100 32 1 2 5 0
82 100 95 100 100 100 100 100 99 100 100 78 100 100 100 100 97 67 100 0 4 34 34 42 51 38 94 41 15 30 11 47 32 99 6 30 13 3 5 5 0 4 5
8 8 33 40 38 100 100 95 83 81 94 58 100 94 62 23 88 92 5 4 17 5 6 91 6 5 2 87 94 100 100 99 49 86 6 81 5 26 16 5 0 0 5
5 5 88 84 13 48 80 74 99 100 42 17 45 23 5 14 5 7 56 39 90 96 71 84 60 10 7 5 41 14 60 19 77 100 7 27 55 100 27 5 5 0 4
4 5 5 8 5 5 5 10 5 5 5 3 4 5 6 36 47 6 100 100 100 100 100 100 100 100 100 99 6 76 60 6 41 100 38 10 100 100 100 5 5 4 1
5 0 5 5 0 2 4 5 5 26 5 5 4 0 4 98 100 42 5 41 100 100 100 100 100 100 100 95 21 18 99 37 40 82 18 5 39 100 98 74 13 3 8
5 5 5 4 0 0 0 0 0 0 0 0 0 5 5 5 33 100 79 65 79 100 100 100 100 100 100 63 43 23 56 100 43 8 99 88 15 100 100 95 96 10 84
1 4 5 4 5 2 4 4 1 0 0 0 2 5 0 4 0 0 9 3 8 7 26 100 100 100 100 100 100 100 100 100 86 100 100 100 84 69 99 100 80 100 12
5 5 29 5 5 5 2 1 1 0 5 3 4 5 2 4 5 0 0 0 0 1 6 81 100 100 90 100 100 100 100 100 100 95 92 95 100 100 100 72 100 100 100
5 5 7 38 61 80 91 35 35 8 16 5 4 1 4 4 5 5 4 0 0 0 1 20 25 99 85 100 100 100 100 100 100 100 100 100 100 100 100 100 98 87 100
93 96 84 6 46 8 9 6 5 5 5 5 6 15 6 10 23 5 5 5 5 5 0 2 2 8 34 100 100 100 100 100 100 100 100 100 100 100 100 100 100 100 100
38 97 100 100 100 100 100 100 99 100 100 68 74 93 62 43 7 4 4 4 0 0 0 0 0 0 2 93 100 100 100 100 100 100 100 86 100 100 100 100 100 100 100
100 100 100 100 100 100 100 100 100 100 100 100 100 99 45 5 7 5 4 0 0 0 0 0 0 0 1 22 79 100 100 100 100 100 100 100 100 100 100 100 100 100 100
19 17 38 46 37 31 27 22 21 46 6 8 19 8 1 0 0 0 0 0 0 0 0 0 0 0 0 0 10 25 80 94 100 100 100 100 100 100 100 100 96 100 100
5 5 1 0 0 0 0 0 0 0 0 0 0 0 0 0 0 3 1 0 0 0 0 0 0 0 0 0 0 1 4 5 14 36 100 74 100 100 100 100 100 100 100
4 5 4 4 3 0 0 0 0 0 0 0 0 0 1 5 5 5 5 47 100 75 15 2 48 27 0 0 0 0 0 0 5 75 63 100 100 100 100 95 100 100 100
5 5 4 4 0 0 0 1 1 0 0 2 2 5 5 5 5 5 46 98 100 100 100 100 85 80 65 25 0 15 0 0 0 1 5 100 100 100 100 100 100 100 100
5 5 2 1 2 5 4 5 5 5 5 5 5 6 8 44 78 100 100 100 100 100 100 100 100 66 100 83 2 0 0 24 16 0 5 17 100 100 100 100 100 100 100
3 0 0 4 5 5 5 4 5 5 5 5 6 54 99 94 100 100 100 100 100 100 75 84 100 100 99 99 100 46 1 0 0 63 11 6 75 100 32 7 100 100 100
5 4 5 5 5 0 1 5 5 5 12 22 51 72 98 100 100 100 100 100 100 100 100 100 100 100 100 100 90 99 94 100 68 81 32 2 53 74 100 54 100 100 100